Location: ????????
(55.5652°N, 39.1232°E)
Time: 12:30:06
(UTC+00:00)

Daily predictions for brighter satellites

Satellite Brightness Start Highest point End
(mag) Time Altitude Azimuth Time Altitude Azimuth Time Altitude Azimuth
Cosmos 2061 Rocket 4.1 16:25:19 10° S 16:31:37 61° E 16:37:58 10° NNE
BREEZE-M DEB (TANK) 4.3 16:29:23 10° SW 16:31:47 30° SSE 16:36:19 10° E
Cosmos 1937 Rocket 4.0 16:28:11 10° NNW 16:33:26 67° WSW 16:38:40 10° SSE
USA 59 Rocket -0.2 16:30:28 10° NW 16:33:53 76° NE 16:38:25 10° ESE
Cosmos 1174 4.2 16:28:35 10° SW 16:33:58 82° SE 16:38:15 10° NE
COSMOS 2428 3.8 16:31:09 10° SSE 16:35:27 23° ESE 16:39:48 10° NE
Cosmos 2233 Rocket 4.0 16:29:31 10° S 16:35:32 61° E 16:41:36 10° NNE
Meteor 2-4 Rocket 4.0 16:30:28 10° NNW 16:36:26 83° W 16:42:22 10° S
Cosmos 1707 3.6 16:33:38 10° N 16:36:44 27° ENE 16:39:49 10° SE
Cosmos 1818 4.5 16:33:14 10° S 16:37:43 27° ESE 16:42:14 10° ENE
Cosmos 2292 Rocket 4.2 16:33:08 10° NNW 16:37:44 56° W 16:41:19 10° S
CSL-04 Debris 4.3 16:32:27 10° SSE 16:37:51 64° ENE 16:43:17 10° NNW
Cosmos 1943 Rocket 2.9 16:32:47 10° NNW 16:37:57 39° NE 16:43:05 10° ESE
USA 276 3.3 16:36:14 10° SW 16:38:37 24° S 16:40:54 10° ESE
CZ-4 R/B 1.3 16:35:37 10° SSE 16:39:26 89° W 16:43:19 10° NNW
Cosmos 468 Rocket 4.0 16:36:30 10° SSW 16:41:38 87° WNW 16:46:49 10° NNE
Lacrosse 4 Rocket 1.6 16:38:57 10° NW 16:43:19 80° SW 16:47:39 10° SE
ADEOS 4.2 16:39:54 10° S 16:45:03 61° WSW 16:50:15 10° NNW
KORONAS-FOTON 4.1 16:43:07 10° N 16:46:41 42° ENE 16:50:13 10° SE
Cosmos 841 Rocket 3.5 16:41:45 10° S 16:46:50 59° ESE 16:51:56 10° NNE
PAYLOAD B 4.4 16:41:23 10° SSE 16:46:59 87° WSW 16:52:39 10° NNW
Cosmos 1356 Rocket 4.0 16:43:56 10° N 16:47:52 38° ENE 16:51:49 10° SE
Cosmos 1726 1.8 16:45:18 10° SSE 16:47:58 40° E 16:50:39 10° NNE
Cosmos 1536 4.3 16:45:36 10° SE 16:48:07 17° E 16:50:41 10° NE
Tsikada Rocket 4.3 16:43:21 10° NNW 16:49:35 75° W 16:55:52 10° S
NOSS 2-1 (C) 3.3 16:46:52 10° NW 16:50:18 85° SW 16:54:50 10° SE
Cosmos 1328 Rocket 3.5 16:46:27 10° N 16:50:45 64° ENE 16:55:00 10° SSE
Cosmos 1125 Rocket 4.1 16:48:45 10° NNW 16:53:39 40° NE 16:58:18 11° ESE
Cosmos 2278 Rocket 2.4 16:48:03 10° NNW 16:53:42 60° NE 16:59:17 10° SE
SeaSat 1 3.8 16:49:48 10° NNE 16:54:27 43° NW 16:59:04 10° WSW
Terra 3.1 16:51:47 10° ESE 16:55:28 24° NE 16:59:12 10° N
Cosmos 1674 2.3 16:53:50 10° N 16:57:13 76° ENE 17:00:33 10° SSE
Meteor 1-4 Rocket 2.0 16:55:05 10° N 16:57:43 47° ENE 17:00:18 10° SSE
Ariane Rocket 4.5 16:54:29 10° E 16:58:16 22° NE 17:02:04 10° N
Cosmos 540 Rocket 4.1 16:53:52 10° SW 16:58:54 60° WNW 17:03:58 10° NNE
Iridium 4 Rocket 3.1 16:55:28 10° N 16:59:48 82° W 17:03:57 10° S
CZ-4B R/B 3.2 16:55:05 10° SSE 17:00:36 88° WSW 17:06:02 10° NNW
Cosmos 1743 2.4 16:57:21 10° S 17:00:55 72° E 17:04:29 10° NNE
Cosmos 2016 Rocket 4.3 16:55:23 10° SSW 17:01:28 71° WNW 17:07:36 10° N
ERS-1 Rocket 3.9 16:59:44 12° ESE 17:03:50 32° ENE 17:08:15 10° N
TSX-5 3.7 17:01:54 10° NW 17:05:02 57° WSW 17:08:07 10° SSE
USA 308 2.8 17:04:48 10° SSW 17:05:01 10° SSW 17:05:01 10° SSW
CZ-4B R/B 3.8 17:03:22 10° S 17:07:03 49° W 17:10:57 10° NNW
ATLAS 2AS CENTAUR R/B 3.2 17:00:18 10° WSW 17:07:31 67° NNW 17:14:27 10° NE
Genesis I 2.8 17:06:12 10° SW 17:09:39 78° SE 17:13:11 10° NE
SPOT 5 3.1 17:06:02 11° SE 17:10:26 47° ENE 17:14:46 10° N
CARTOSAT-1 3.9 17:07:08 10° S 17:11:21 68° WSW 17:15:37 10° NNW
USA 290 2.3 17:08:34 10° NNW 17:11:49 62° ENE 17:14:16 16° SE
MOS 1-B 4.4 17:10:34 10° SSE 17:16:23 85° WSW 17:22:14 10° NNW
Cosmos 2360 Rocket 2.6 17:12:55 10° SW 17:18:34 70° NW 17:24:14 10° NNE
Okean 3 Rocket 4.1 17:15:15 10° SSE 17:19:25 39° E 17:23:34 10° NNE
Okean O Rocket 1.7 17:18:01 10° SSE 17:22:28 86° W 17:26:56 10° NNW
NOSS 2-1 (E) 3.9 17:22:48 10° WNW 17:26:19 51° SW 17:30:05 14° SSE
Resurs 01 Rocket 2.5 17:22:42 10° S 17:27:01 50° W 17:31:21 10° NNW
Cosmos 2237 Rocket 3.2 17:23:14 11° SSE 17:27:21 23° ESE 17:31:39 10° NE
Cosmos 2322 Rocket 3.1 17:21:55 10° SW 17:27:32 54° NW 17:33:09 10° NNE
ACS3 Solar Sail 1.9 17:21:17 10° SSE 17:27:41 85° ENE 17:34:08 10° NNW
IKONOS-2 4.4 17:25:14 10° NNE 17:29:23 60° ESE 17:33:28 10° S
Cosmos 1340 3.3 17:26:14 10° SSW 17:29:26 49° WNW 17:32:39 10° N
Helios 1A 3.8 17:26:56 10° N 17:30:56 52° WNW 17:34:51 10° SW
USA 186 3.6 17:28:01 10° SSW 17:30:56 32° W 17:33:54 10° NNW
MOS 1 Rocket 3.7 17:27:39 16° SE 17:31:31 55° ENE 17:36:39 10° N
Cosmos 1814 Rocket 4.1 17:27:55 10° S 17:33:03 52° ESE 17:38:09 10° NE
Cosmos 2333 Rocket 2.9 17:29:34 10° SW 17:35:17 61° NW 17:41:02 10° NNE
NOSS 2-1 (D) 4.3 17:32:56 10° WNW 17:36:21 42° SW 17:39:51 15° SSE
Cosmos 1515 Rocket 3.4 17:32:21 10° N 17:36:43 84° E 17:40:29 14° SSE
Cosmos 2344 4.3 17:31:06 10° W 17:38:09 50° N 17:46:21 10° ENE
Okean-O 2.6 17:34:45 14° SSE 17:38:31 83° ENE 17:42:57 10° NNW
Cosmos 2219 Rocket 2.3 17:33:46 10° SW 17:39:28 83° NW 17:45:11 10° NNE
BlueWalker 3 3.2 17:36:12 10° W 17:39:29 29° SSW 17:41:17 19° SSE
MetOp-B 4.1 17:36:23 14° SSE 17:41:00 77° ENE 17:46:23 10° NNW
CSL-04 Rocket 4.5 17:37:58 10° S 17:43:12 50° W 17:48:25 10° NNW
Sich 1 3.8 17:43:47 25° ESE 17:45:03 30° E 17:48:49 10° NNE
USA 245 3.5 17:45:40 24° NE 17:45:40 24° NE 17:47:18 10° N
USA 267 3.3 17:41:40 19° ESE 17:46:38 84° SSW 17:53:15 10° WNW
Cosmos 1805 4.2 17:46:41 25° E 17:46:45 25° E 17:49:48 10° NNE
SL-16 R/B 4.0 17:42:46 10° WSW 17:47:55 34° NW 17:53:06 10° NNE
CZ-4C R/B 4.5 17:45:54 10° NE 17:48:49 24° E 17:48:49 24° E
Cosmos 1842 4.1 17:46:22 10° NNW 17:49:49 44° W 17:53:16 10° SSW
Cosmos 2369 Rocket 3.2 17:49:30 10° NNW 17:54:45 35° NE 17:58:08 19° E
Meteor 1-13 Rocket 4.3 17:49:43 10° NNW 17:55:41 86° WSW 18:00:34 15° S
Cosmos 1980 4.2 17:50:34 10° S 17:55:43 37° ESE 18:00:54 10° NE
IRS-1C Rocket 4.1 17:52:38 21° SSE 17:56:12 75° ENE 18:01:30 10° NNW
DELTA 2 DEB (DPAF) 4.0 17:52:26 10° NNE 17:56:34 57° ESE 17:59:32 18° S
Cosmos 1766 Rocket 4.1 17:52:53 10° SSW 17:57:11 60° WNW 18:01:33 10° N
Cosmos 2298 Rocket 4.1 17:53:15 10° NNW 17:58:33 63° ENE 18:01:17 28° SE
Cosmos 1500 Rocket 3.9 17:57:22 29° SE 17:59:06 43° E 18:03:15 10° NNE
USA 32 4.0 17:54:41 10° N 17:59:56 70° E 18:03:12 23° SSE
Cosmos 2322 3.6 17:54:21 10° SSW 18:00:01 85° ESE 18:05:43 10° NE
Cosmos 1428 Rocket 4.4 17:56:25 10° N 18:02:34 81° ENE 18:06:58 20° SSE
SWARM A 4.4 18:00:33 19° S 18:03:00 79° W 18:06:33 10° N
Cosmos 1743 Rocket 4.1 18:02:37 33° ESE 18:03:29 37° E 18:07:29 10° NNE
Cosmos 2150 Rocket 4.0 17:58:35 10° NNW 18:03:47 67° ENE 18:06:16 30° SE
Spot 2 Rocket 3.5 18:01:44 28° SE 18:04:20 63° ENE 18:09:19 10° NNW
In-Cosmos 22 4.5 18:01:00 10° NNW 18:06:45 70° W 18:11:29 15° S
NOSS 3-4 (A) 4.0 18:02:07 10° NW 18:08:25 62° NNE 18:13:10 23° ESE
NOSS 3-4 (C) 4.0 18:02:13 10° NW 18:08:30 61° NNE 18:13:16 22° ESE
Meteor 2-10 4.1 18:03:57 10° S 18:09:29 74° E 18:15:12 10° NNE
Cosmos 1315 Rocket 2.8 18:07:18 10° NNW 18:11:17 78° WSW 18:13:04 31° S
Cosmos 1707 4.2 18:08:22 10° NNW 18:11:32 31° W 18:14:39 10° SSW
USA 276 3.9 18:10:01 10° WSW 18:11:16 18° SW 18:11:16 18° SW
Cosmos 1570 Rocket 4.3 18:09:36 23° SSE 18:12:36 46° ESE 18:17:37 10° NE
CZ-4 R/B 4.3 18:13:01 10° WSW 18:14:35 12° W 18:16:10 10° WNW
Nadezhda 4 Rocket 4.3 18:09:11 10° NNW 18:15:21 67° W 18:21:01 13° S
Cosmos 2195 Rocket 4.4 18:09:16 10° N 18:15:25 87° E 18:19:24 23° SSE
Cosmos 1408 Rocket 3.4 18:13:30 23° S 18:16:11 77° E 18:20:36 10° NNE
Cosmos 1092 Rocket 4.0 18:11:09 10° N 18:17:29 77° ENE 18:21:13 27° SSE
Cosmos 1733 3.0 18:15:43 25° SSW 18:17:37 76° WNW 18:21:05 10° N
Meteor 1-23 Rocket 4.2 18:12:13 10° NNW 18:17:52 89° ENE 18:21:05 27° SSE
COSMOS 2428 2.7 18:13:19 10° SSW 18:19:02 87° WNW 18:24:50 10° NE
Cosmos 1818 3.6 18:15:17 10° SW 18:20:47 85° NW 18:26:20 10° NE
Lacrosse 4 Rocket 4.0 18:18:22 10° WNW 18:20:52 15° WSW 18:23:21 10° SW
Cosmos 1943 Rocket 2.5 18:16:33 10° NW 18:21:58 59° WSW 18:24:57 26° S
Cosmos 1975 3.5 18:22:48 36° ENE 18:22:48 36° ENE 18:26:01 10° NNE
USA 59 Rocket 1.8 18:20:08 10° WNW 18:23:13 22° SW 18:25:31 16° SSW
Cosmos 1536 3.2 18:20:01 11° SSW 18:23:37 58° WNW 18:27:25 10° N
SL-16 R/B 3.7 18:25:29 19° E 18:25:29 19° E 18:28:08 10° NE
Cosmos 2026 Rocket 3.9 18:18:03 10° N 18:24:24 86° E 18:27:59 27° SSE
OPS 6432 4.0 18:23:59 10° NW 18:27:18 88° SSW 18:27:20 87° S
Cosmos 1464 Rocket 4.3 18:23:00 10° SSW 18:29:18 71° WNW 18:35:42 10° N
Okean 1-7 4.0 18:28:30 10° N 18:32:21 30° ENE 18:32:39 30° ENE
Terra 1.9 18:30:28 32° S 18:32:39 70° WSW 18:37:23 10° NNW
SL-14 R/B 3.2 18:29:19 10° NNW 18:33:07 75° W 18:33:54 53° S
Meteor 1-11 Rocket 3.7 18:27:48 10° SSW 18:33:28 82° WNW 18:39:04 10° NNE
CRYOSAT 2 4.4 18:29:07 10° N 18:34:02 81° W 18:36:55 25° SSW
Cosmos 158 Rocket 3.8 18:33:42 41° SSE 18:35:02 56° ESE 18:39:49 10° NE
Cosmos 1634 Rocket 4.1 18:32:27 32° SSE 18:35:15 58° E 18:41:27 10° NNE
Cosmos 1125 Rocket 4.3 18:30:50 10° NW 18:35:48 46° WSW 18:38:31 24° SSW
Ariane Rocket 2.9 18:34:38 38° SSE 18:36:38 88° WSW 18:41:44 10° NNW
Aureole 3 4.5 18:33:50 10° N 18:36:19 27° NE 18:36:19 27° NE
Cosmos 2278 Rocket 3.4 18:32:28 10° NW 18:37:33 35° WSW 18:41:07 18° SSW
SPOT 3 Rocket 3.5 18:36:39 39° SSE 18:38:40 88° WSW 18:43:51 10° NNW
Cosmos 1805 Rocket 3.4 18:37:25 44° S 18:38:46 84° E 18:43:08 10° NNE
ERS-1 Rocket 3.5 18:39:39 25° SSW 18:42:23 53° W 18:47:20 10° NNW
Meteor 2-9 Rocket 4.1 18:38:56 16° SSW 18:43:16 80° WNW 18:48:44 10° NNE
Cosmos 1862 Rocket 3.5 18:42:04 10° N 18:46:27 66° ENE 18:46:56 60° ESE
Cosmos 2034 Rocket 4.1 18:41:53 11° SSW 18:47:59 74° WNW 18:54:12 10° N
Okean 3 3.4 18:43:57 10° N 18:48:04 63° ENE 18:48:15 63° E
SPOT 5 4.3 18:45:10 14° SSW 18:48:37 30° W 18:52:39 10° NNW
Celestis-02/Orion 38 4.4 18:45:37 10° NE 18:50:46 66° ESE 18:52:46 36° S
Cosmos 1707 Rocket 3.4 18:47:15 10° N 18:51:46 82° E 18:52:21 66° SSE
USA 215 3.4 18:45:53 10° ENE 18:52:06 44° SE 18:58:19 10° SSW
Cosmos 1633 Rocket 3.9 18:53:17 35° ENE 18:53:17 35° ENE 18:56:39 10° NNE
Cosmos 2208 Rocket 3.9 18:55:25 42° S 18:57:13 73° ESE 19:02:34 10° NNE
NOSS 0 Rocket 4.0 18:51:23 10° SW 18:57:39 82° NW 19:03:57 10° NE
MetOp-A 3.7 18:58:35 58° E 18:58:59 60° ENE 19:03:40 10° N
Okean O Rocket 4.3 18:56:57 10° WSW 18:59:25 15° W 19:01:53 10° NW
ATLAS 2AS CENTAUR R/B 3.8 18:52:41 10° WNW 18:59:27 44° N 19:05:58 10° ENE
Cosmos 1666 Rocket 3.9 19:00:46 50° ENE 19:00:46 50° ENE 19:04:34 10° NNE
Landsat 4 4.3 19:01:44 44° NNE 19:01:44 44° NNE 19:04:19 10° N
Cosmos 2360 Rocket 4.4 18:58:55 10° W 19:03:33 25° NNW 19:08:12 10° NNE
Cosmos 1656 Rocket 3.6 18:57:54 10° NW 19:03:38 89° SW 19:05:00 54° SSE
Cosmos 773 Rocket 4.1 19:06:05 53° ESE 19:06:05 53° ESE 19:11:08 10° NE
Cosmos 2228 Rocket 3.3 19:03:53 10° NNW 19:08:26 69° W 19:09:07 59° SSW
Aureole 3 Rocket 4.3 19:02:37 10° SSW 19:09:46 61° WNW 19:14:53 10° N
Cosmos 2297 3.6 19:05:03 10° NW 19:10:43 88° WSW 19:11:54 58° SSE
Cosmos 2237 Rocket 2.1 19:05:08 10° SW 19:10:46 84° NW 19:16:27 10° NNE
ACS3 Solar Sail 3.8 19:07:28 10° SW 19:12:33 24° W 19:17:40 10° NNW
Cosmos 1441 Rocket 4.1 19:13:49 39° NNE 19:13:49 39° NNE 19:16:12 10° NNE
ARIANE 5 R/B 3.2 19:19:16 45° ENE 19:19:16 45° ENE 19:23:12 10° N
Cosmos 1805 4.5 19:21:00 32° W 19:21:41 35° WNW 19:25:06 10° N
NOSS 3-3 (C) 3.9 19:22:06 53° ESE 19:22:06 53° ESE 19:28:07 10° NE
Sich 1 4.2 19:20:26 25° WSW 19:22:21 39° WNW 19:26:25 10° N
CZ-4C R/B 4.2 19:19:25 10° N 19:23:00 45° WNW 19:23:39 40° W
Cosmos 2279 Rocket 3.9 19:22:18 50° S 19:24:05 83° E 19:30:21 10° NNE
Cosmos 2219 Rocket 4.2 19:19:22 10° W 19:24:13 28° NNW 19:29:06 10° NNE
USA 267 3.7 19:29:00 41° SSW 19:30:08 44° SW 19:36:23 10° WNW
NOSS 3-3 (A) 3.7 19:38:25 66° SSE 19:38:49 68° SE 19:45:27 10° NE
Cosmos 2369 Rocket 2.1 19:33:32 10° NW 19:39:15 72° WSW 19:39:53 65° SSW
Cosmos 1980 4.3 19:34:01 10° SW 19:39:38 57° NW 19:45:16 10° NNE
Okean 2 4.0 19:38:22 10° NNW 19:41:41 50° WNW 19:41:41 50° WNW
SL-08 ROCKET BODY 4.4 19:42:34 10° NNW 19:48:48 80° W 19:49:53 62° SSW
Cosmos 192 4.4 19:44:12 10° NNW 19:48:53 70° W 19:48:53 70° W
SL-24 DEB 4.4 19:48:21 10° N 19:52:12 64° NNE 19:52:12 64° NNE
Cosmos 2344 4.0 19:46:19 10° WNW 19:53:52 64° NNE 20:00:25 22° ESE
Cosmos 783 Rocket 4.5 19:58:30 75° ENE 19:58:30 75° ENE 20:03:23 10° NNE
ATLAS CENTAUR R/B 3.9 20:01:59 12° NE 20:01:59 12° NE 20:02:16 10° NE
NOSS 3-4 (A) 3.9 19:52:58 10° NW 19:59:29 59° SW 20:00:35 53° SSW
NOSS 3-4 (C) 3.9 19:53:04 10° NW 19:59:35 59° SW 20:00:41 54° SSW
Cosmos 1607 4.0 20:00:25 61° ESE 20:00:25 61° ESE 20:06:23 10° NE
Cosmos 1943 Rocket 4.5 20:02:23 10° WNW 20:04:34 12° W 20:06:27 11° WSW
RESURS DK-1 4.4 20:02:58 10° NNW 20:06:08 21° NNE 20:06:43 21° NE
SL-16 R/B 2.0 20:07:18 86° S 20:07:25 88° ESE 20:13:09 10° NE
ASTEX 1 3.5 20:09:35 72° NNE 20:09:35 72° NNE 20:14:02 10° N
Okean 1-7 4.1 20:05:40 10° NNW 20:09:11 38° WNW 20:09:11 38° WNW
Cosmos 2266 Rocket 4.2 20:03:47 10° NNW 20:09:53 61° W 20:10:56 53° SW
Meteor 2-5 Rocket 3.8 20:04:28 10° NNW 20:10:26 69° ENE 20:10:47 67° E
Terra 4.3 20:09:10 10° WSW 20:11:07 13° W 20:13:09 10° WNW
Cosmos 2056 Rocket 4.0 20:09:57 10° NNW 20:15:02 49° NE 20:15:12 49° ENE
ALOS 2 3.3 20:25:26 51° N 20:25:26 51° N 20:28:50 10° NNW
Meteor 1-15 Rocket 4.5 20:29:45 60° E 20:29:45 60° E 20:35:17 10° NNE
Meteor 1-22 Rocket 4.4 20:30:04 60° ENE 20:30:04 60° ENE 20:35:08 10° NNE
Cosmos 1633 Rocket 4.5 20:30:16 32° WNW 20:30:20 32° WNW 20:34:20 10° N
Cosmos 1655 Rocket 4.1 20:24:02 10° NNW 20:30:20 64° W 20:31:03 59° SW
Meteor 1-24 Rocket 3.7 20:26:26 10° NNW 20:32:31 87° WSW 20:32:38 86° SSW
H-2A R/B 3.5 20:34:25 44° N 20:34:25 44° N 20:37:21 10° NNW
Cosmos 1943 3.8 20:34:42 45° ENE 20:34:42 45° ENE 20:38:57 10° NE
Nadezhda 2 Rocket 4.4 20:28:55 10° N 20:35:20 78° ENE 20:35:46 74° ESE
USA 215 3.1 20:29:02 10° ENE 20:35:38 85° SSE 20:42:12 10° WSW
SL-24 R/B - RUBIN 2 4.5 20:31:25 10° NW 20:38:01 73° NE 20:38:53 63° E
Cosmos 1244 Rocket 4.3 20:37:15 10° NNW 20:43:27 89° E 20:43:41 84° SSE
Cosmos 1553 Rocket 4.2 20:45:06 56° E 20:45:07 56° E 20:51:13 10° NNE
Cosmos 1538 Rocket 4.3 20:49:11 66° NE 20:49:11 66° NE 20:53:49 10° NNE
Cosmos 1697 Rocket 4.0 20:44:14 10° NNW 20:49:24 35° NE 20:51:36 26° E
Cosmos 1420 Rocket 4.2 20:44:22 10° NNW 20:48:48 66° NW 20:48:48 66° NW
ATLAS 2AS CENTAUR R/B 3.3 20:44:43 10° NW 20:51:35 54° NNE 20:56:21 19° E
Meteor 2-10 Rocket 3.7 20:54:31 68° NNE 20:54:31 68° NNE 20:59:17 10° NNE
ARIANE 5 R/B 4.3 20:56:43 25° WNW 20:56:43 25° WNW 20:59:24 10° NNW
Cosmos 2237 Rocket 4.0 20:50:48 10° W 20:55:37 28° NNW 21:00:28 10° NNE
Cosmos 1656 3.8 20:54:19 10° NNW 21:00:02 66° NE 21:00:10 66° ENE
Cosmos 1025 Rocket 4.5 21:03:01 10° N 21:06:07 33° NE 21:06:07 33° NE
Cosmos 724 4.4 21:11:49 63° WNW 21:12:24 68° NW 21:18:14 10° NE
NOSS 3-3 (C) 4.4 21:09:29 28° W 21:12:41 59° NNW 21:19:40 10° NE
Cosmos 1680 Rocket 4.3 21:14:38 43° ENE 21:14:38 43° ENE 21:18:34 10° NE
Cosmos 1371 Rocket 4.5 21:10:22 10° NNW 21:14:26 53° NW 21:14:26 53° NW
Cosmos 2369 Rocket 4.2 21:18:54 10° WNW 21:21:39 16° W 21:21:39 16° W
Meteor 1-12 Rocket 4.2 21:26:29 75° NW 21:26:29 75° NW 21:31:54 10° NNE
Cosmos 1953 4.2 21:30:32 27° NNE 21:30:32 27° NNE 21:32:29 10° NNE
H-2A R/B 3.7 21:26:03 10° NNE 21:28:45 29° ENE 21:28:45 29° ENE
ATLAS CENTAUR R/B 3.2 21:36:42 26° N 21:36:42 26° N 21:39:44 10° NE
Cosmos 1975 Rocket 4.5 21:32:41 10° N 21:36:02 33° NE 21:36:02 33° NE
S3M 3.9 21:37:10 69° E 21:37:14 69° E 21:43:22 10° NNE
SL-19 R/B 4.2 21:37:12 10° NNE 21:42:36 81° ENE 21:42:36 81° ENE
RESURS DK-1 4.2 21:40:19 10° NW 21:42:14 27° NNW 21:42:14 27° NNW
Cosmos 1745 Rocket 4.0 21:38:13 10° NNW 21:44:28 70° W 21:44:30 70° W
Cosmos 1980 Rocket 3.3 21:42:10 10° NNW 21:47:28 40° NE 21:50:14 25° E
SL-16 R/B 3.8 21:49:08 19° W 21:52:14 30° NW 21:57:14 10° NNE
Cosmos 1452 Rocket 3.7 21:48:06 10° NNW 21:52:48 69° N 21:52:48 69° N
Cosmos 2112 Rocket 4.2 21:56:51 71° NNE 21:56:51 71° NNE 22:01:36 10° NNE
Cosmos 1331 Rocket 4.2 21:52:11 10° NNW 21:56:50 69° NNW 21:56:50 69° NNW
CZ-3B R/B 3.4 21:39:53 10° WNW 21:57:57 70° SSW 21:58:53 63° SSE
CZ-2C R/B 3.7 21:59:29 34° E 22:00:40 38° ENE 22:05:26 10° N
IDEFIX/ARIANE 42P 4.4 21:57:39 10° NE 22:01:31 20° E 22:02:12 20° E
Cosmos 2360 4.3 21:56:19 10° NW 22:01:27 70° WNW 22:01:27 70° WNW
Cosmos 1603 3.8 22:04:06 65° WNW 22:04:17 66° NW 22:09:56 10° NNE
USA 281 3.9 22:01:01 19° ESE 22:05:34 51° NE 22:11:53 10° NNW
Cosmos 1417 Rocket 4.5 22:07:36 68° WSW 22:08:01 70° WNW 22:14:23 10° N
In-Cosmos 22 Rocket 4.2 22:02:38 10° NNW 22:08:00 79° WNW 22:08:00 79° WNW
Cosmos 2344 4.0 22:00:36 10° NW 22:08:28 59° SW 22:10:20 52° SSW
Cosmos 2315 Rocket 3.8 22:09:52 77° SE 22:10:15 81° E 22:16:29 10° NNE
Cosmos 1110 Rocket 4.4 22:06:00 10° NNW 22:10:06 55° NW 22:10:06 55° NW
Cosmos 883 Rocket 4.3 22:11:20 82° S 22:11:38 87° E 22:17:48 10° NNE
Cosmos 1733 Rocket 4.5 22:14:47 31° NW 22:14:47 31° NW 22:17:47 10° N
Meteor 1-16 Rocket 4.3 22:14:29 59° NW 22:14:29 59° NW 22:19:29 10° N
Cosmos 1943 4.1 22:16:28 37° WNW 22:17:42 42° NW 22:23:04 10° NNE
USA 215 3.3 22:12:08 10° E 22:18:42 80° N 22:25:16 10° W
Cosmos 2154 Rocket 4.4 22:14:31 10° N 22:20:38 56° ENE 22:22:22 42° ESE
Cosmos 1908 Rocket 4.3 22:22:57 51° N 22:22:57 51° N 22:26:24 10° N
Cosmos 1833 Rocket 3.4 22:24:24 41° ESE 22:24:24 41° ESE 22:29:36 10° NE
ARIANE 6 FM1 Upper Stage 3.8 22:26:27 44° NE 22:26:27 44° NE 22:29:30 10° NE
Resurs 1-4 Rocket 3.8 22:24:02 10° NE 22:28:09 23° E 22:29:27 21° ESE
Cosmos 921 Rocket 3.7 22:34:26 53° NE 22:34:26 53° NE 22:37:53 10° NNE
Cosmos 1709 Rocket 4.4 22:27:41 10° NNW 22:33:43 47° W 22:33:49 47° W
Cosmos 1697 Rocket 2.7 22:28:12 10° NW 22:33:15 66° WNW 22:33:15 66° WNW
Cosmos 2360 Rocket 4.5 22:31:11 10° NNW 22:35:40 23° NNE 22:40:06 10° ENE
Cosmos 1782 Rocket 4.0 22:38:46 59° NNE 22:38:46 59° NNE 22:42:24 10° NNE
Cosmos 494 Rocket 3.9 22:39:31 80° NNW 22:39:31 80° NNW 22:44:35 10° NNE
ATLAS 2AS CENTAUR R/B 2.5 22:35:58 10° NW 22:42:50 70° SW 22:43:40 63° S
Cosmos 2322 Rocket 4.2 22:40:12 10° NNW 22:45:03 27° NNE 22:49:52 10° E
Cosmos 220 Rocket 4.5 22:50:52 57° NE 22:50:52 57° NE 22:54:20 10° NNE
Cosmos 2074 Rocket 3.8 22:44:34 10° NNW 22:50:50 84° W 22:51:48 66° S
Cosmos 1992 Rocket 4.2 22:46:46 10° NNW 22:52:00 66° ENE 22:53:23 47° ESE
Cosmos 2369 3.9 22:47:10 10° NNW 22:52:53 70° NE 22:55:37 31° SE
COBE Rocket 4.1 22:48:31 10° N 22:52:58 60° NW 22:52:58 60° NW
Cosmos 2333 Rocket 4.3 22:48:32 10° NNW 22:53:24 27° NNE 22:58:14 10° E
Cosmos 1680 Rocket 4.5 22:54:53 35° WNW 22:55:42 37° NW 23:00:39 10° NNE
Cosmos 2082 Rocket 3.8 22:55:04 21° SE 22:56:33 24° ESE 23:00:55 10° NE
Nimbus 7 Rocket 4.3 22:58:28 10° NNE 23:04:20 71° WNW 23:05:15 60° WSW
Cosmos 1953 4.4 23:05:32 18° NW 23:05:32 18° NW 23:07:37 10° NNW
CZ-2D R/B 3.2 22:59:36 10° NNE 23:04:44 39° E 23:06:27 31° SE
SL-16 R/B 3.4 23:00:20 10° NNW 23:05:43 41° NE 23:11:04 10° ESE
H-2A R/B 3.1 23:01:43 10° N 23:05:28 37° NW 23:05:28 37° NW
SL-16 R/B 3.4 22:59:58 10° SE 23:05:54 49° ENE 23:11:53 10° NNW
Cosmos 1271 Rocket 4.1 23:05:22 10° N 23:08:37 32° ENE 23:08:52 31° ENE
Cosmos 521 Rocket 4.5 23:07:18 10° NW 23:13:45 62° SW 23:14:50 54° SSW
Cosmos 468 4.4 23:13:38 73° SW 23:14:09 85° WNW 23:19:30 10° NNE
Cosmos 1975 Rocket 4.5 23:10:33 10° NNW 23:13:04 27° NW 23:13:04 27° NW
Cosmos 1461 4.4 23:15:28 24° E 23:15:28 24° E 23:17:53 10° ENE
ATLAS CENTAUR R/B 3.6 23:11:43 10° NW 23:14:47 22° N 23:17:59 10° ENE
CZ-4C R/B 3.5 23:15:18 21° SE 23:16:11 22° ESE 23:20:19 10° ENE
Lacrosse 5 3.9 23:18:50 15° SE 23:19:11 16° SE 23:22:09 10° E
SeaSat 1 3.6 23:14:43 10° ESE 23:19:22 44° NE 23:24:02 10° NNW
Cosmos 2084 Rocket 4.5 23:19:50 35° NW 23:20:33 38° NNW 23:24:24 10° NE
Geosat 4.1 23:20:04 10° NE 23:25:05 64° ESE 23:25:50 56° SSE
Cosmos 1375 Rocket 4.5 23:19:52 10° NW 23:26:29 89° SW 23:32:58 10° SE
Cosmos 2341 Rocket 4.3 23:20:23 10° N 23:26:38 66° ENE 23:30:56 21° SSE
ADEOS II 3.1 23:22:41 10° NNE 23:27:38 40° E 23:29:51 27° SSE
Cosmos 2184 Rocket 4.2 23:22:03 10° NNW 23:28:06 52° W 23:29:04 48° WSW
Cosmos 1980 Rocket 2.1 23:26:13 10° NW 23:31:43 57° WSW 23:31:54 56° SW
Cosmos 1818 4.3 23:29:01 10° NW 23:34:25 53° NNE 23:39:47 10° ESE
Cosmos 962 Rocket 4.5 23:29:18 10° N 23:35:43 87° E 23:39:09 30° SSE
Helios 1A Rocket 4.4 23:37:35 23° NW 23:37:35 23° NW 23:39:23 10° NNW
Cosmos 2218 Rocket 4.4 23:29:31 10° N 23:35:51 63° ENE 23:41:36 12° SSE
Cosmos 2327 Rocket 4.3 23:31:51 10° NNW 23:38:00 79° W 23:40:19 40° S
Gbstr 26 Del rocket 4.3 23:37:52 43° S 23:38:53 46° SSE 23:44:18 10° E
CZ-2C R/B 2.9 23:40:58 45° W 23:40:58 45° W 23:45:53 10° NNW
IDEFIX/ARIANE 42P 2.5 23:36:25 10° NNE 23:41:42 83° WNW 23:42:56 54° SSW
ALOS 3.4 23:41:29 10° NNE 23:45:48 37° E 23:48:04 23° SSE
Cosmos 2098 Rocket 2.9 23:46:28 54° NNE 23:46:28 54° NNE 23:49:15 10° NNE
Nadezhda 1 Rocket 3.9 23:46:12 44° SSW 23:48:19 78° WNW 23:54:36 10° N
Cosmos 1536 Rocket 3.9 23:44:23 10° NNW 23:48:26 50° W 23:48:26 50° W
USA 281 3.3 23:47:52 38° SSW 23:50:06 52° WSW 23:56:33 10° NW
Sich 1 Rocket 3.5 23:50:19 60° SSW 23:51:09 88° WNW 23:55:46 10° NNE
